Regional Weather Roundup
Issued by NWS Green Bay, WI

Home | Current Version | Previous Version | Text Only | Print | Product List | Glossary On
Versions: 1 2 3 4 5 6 7 8 9 10 11 12 13 14 15 16 17 18 19 20 21 22 23 24 25 26 27 28 29 30 31 32 33 34 35 36 37 38 39 40 41 42 43 44 45 46 47 48 49 50
000
ASUS43 KGRB 060711
RWRGRB

NORTH-CENTRAL AND NORTHEAST WISCONSIN REGIONAL WEATHER ROUNDUP
NATIONAL WEATHER SERVICE GREEN BAY WI
200 AM CDT MON JUL 06 2015

WIZ005-009-010>012-018-019-060800-
NORTH CENTRAL WISCONSIN

CITY           SKY/WX    TMP DP  RH WIND       PRES   REMARKS
IRONWOOD       CLOUDY    70  68  94 SW12      29.86R
MANITOWISH WTR CLOUDY    69  65  87 SW8       29.90R
ARBOR VITAE    CLOUDY    72  66  82 SW10      29.91S
EAGLE RIVER    CLOUDY    70  61  73 SW8G16    29.91F
LAND O LAKES   CLOUDY    70  63  77 SW7       29.91F
RHINELANDER    CLOUDY    69  63  81 SW12G20   29.93F
PHILLIPS       CLOUDY    69  64  84 SW8       29.89F
ANTIGO         CLOUDY    66  63  91 S10       29.96S
TOMAHAWK       CLOUDY    66  62  86 S3        29.92F
MERRILL        CLOUDY    69  65  85 S5        29.93F
$$

WIZ013-073-060800-
NORTHEAST WISCONSIN

CITY           SKY/WX    TMP DP  RH WIND       PRES   REMARKS
IRON MOUNTAIN  CLOUDY    67  63  87 S3        29.91S
MARINETTE      MOCLDY    70  61  73 SW8       29.94R
OCONTO         PTCLDY    67  65  94 S3        29.95R
$$

WIZ017-030-035>037-045-060800-
CENTRAL WISCONSIN

CITY           SKY/WX    TMP DP  RH WIND       PRES   REMARKS
MEDFORD        CLOUDY    68  64  86 S10       29.91F
WAUSAU         MOCLDY    71  64  78 S7        29.92F
MOSINEE        MOCLDY    66  64  94 S7        29.95F
MARSHFIELD     CLOUDY    68  62  81 S8        29.92F
WISC RAPIDS    MOCLDY    69  63  81 S5        29.95F
STEVENS POINT  MOCLDY    67  63  85 S7        29.96F
WAUPACA        PTCLDY    69  66  90 S3        29.96S
SHAWANO        PTCLDY    70  64  80 CALM      29.96R
CLINTONVILLE   PTCLDY    68  63  83 S6        29.96R
$$

WIZ038-039-048-051-060800-
FOX VALLEY

CITY           SKY/WX    TMP DP  RH WIND       PRES   REMARKS
NWS GREEN BAY  PTCLDY    67  62  84 S5        29.97R HAZE
APPLETON       CLEAR     68  61  77 S7        29.97S
OSHKOSH        CLEAR     66  61  84 S7        29.97R
FOND DU LAC    CLEAR     69  62  78 SW6       29.99R
$$

WIZ022-050-052-060800-
EAST CENTRAL WISCONSIN

CITY           SKY/WX    TMP DP  RH WIND       PRES   REMARKS
STURGEON BAY   PTCLDY    64  57  77 S9        29.99R
MANITOWOC      CLEAR     62  59  90 MISG      29.99R
SHEBOYGAN      CLEAR     60  58  92 CALM      29.99R FOG
$$

LMZ563-521-522-541>543-060800-
LAKESHORE

STATION/POSITION TIME  TEMP    WIND        PRES    VSBY  WAVE
                       AIR SEA DIR/SP/G                  HT/PER
                 (UTC) (F)     (DEG/KT/KT) (MB)    (MI)  (FT/S)
SHEBOYGAN LKSHOR 0700   65     190/  6/  6 1015.9R
KEWAUNEE LKSHORE 0600   63     190/  6/  8 1013.9R
NORTHPORT PIER   0600   66     160/  7/ 18 1013.2F
N MID LAKE BUOY  0650   57 52  210/ 14/ 16 1014.4R         2/ 4
SISTER BAY LKSHO 0614   68     180/ 13/ 17   N/A
CHAMBERS ISLAND  0600   70     170/  6/ 13 1013.2F
MENOMINEE LKSHOR 0600   71     180/  7/ 11 1013.9F
$$



USA.gov is the U.S. government's official web portal to all federal, state and local government web resources and services.